This is the latest recevied weather packets stored in our database for station/object NO9B. If no packets are shown the sender has not sent any weather packets the latest 10 day(s).
| Time | Temp. | Humidity | Pressure | Rain* | Wind** | Luminosity | Snow |
|---|---|---|---|---|---|---|---|
| 1788377516 | 32.22° C | 67% | 1014 hPa | 0 mm | - | 282 W/m² | - |
| 1788377215 | 31.67° C | 67% | 1013.9 hPa | 0 mm | - | 353 W/m² | - |
| 1788376915 | 32.22° C | 67% | 1014.4 hPa | 0 mm | - | 271 W/m² | - |
| 1788376614 | 32.22° C | 67% | 1014.5 hPa | 0 mm | - | 130 W/m² | - |
| 1788376309 | 32.78° C | 66% | 1014.3 hPa | 0 mm | - | 156 W/m² | - |
| 1788376004 | 32.78° C | 66% | 1014.4 hPa | 0 mm | - | 467 W/m² | - |
| 1788375699 | 32.22° C | 70% | 1014.3 hPa | 0 mm | - | 562 W/m² | - |
| 1788375395 | 32.22° C | 69% | 1014.4 hPa | 0 mm | - | 368 W/m² | - |
| 1788375092 | 31.67° C | 73% | 1014.5 hPa | 0 mm | - | 517 W/m² | - |
| 1788374791 | 31.67° C | 72% | 1014.7 hPa | 0 mm | - | 157 W/m² | - |
| 1788374487 | 31.11° C | 70% | 1014.5 hPa | 0 mm | - | 172 W/m² | - |
| 1788374183 | 31.11° C | 71% | 1014.5 hPa | 0 mm | - | 175 W/m² | - |
| 1788373879 | 31.67° C | 69% | 1014.5 hPa | 0 mm | - | 123 W/m² | - |
| 1788373575 | 31.67° C | 69% | 1014.7 hPa | 0 mm | - | 418 W/m² | - |
| 1788373271 | 31.67° C | 71% | 1014.8 hPa | 0 mm | - | 239 W/m² | - |
| 1788372967 | 31.11° C | 71% | 1014.7 hPa | 0 mm | - | 415 W/m² | - |
| 1788372666 | 31.11° C | 72% | 1014.8 hPa | 0 mm | - | 362 W/m² | - |
| 1788372366 | 31.11° C | 70% | 1014.9 hPa | 0 mm | - | 309 W/m² | - |
| 1788372062 | 30.56° C | 70% | 1014.6 hPa | 0 mm | - | 259 W/m² | - |
| 1788371762 | 30.56° C | 73% | 1015.1 hPa | 0 mm | - | 161 W/m² | - |
| 1788371458 | 30.56° C | 72% | 1015.1 hPa | 0 mm | - | 250 W/m² | - |
| 1788371154 | 30.56° C | 71% | 1015.2 hPa | 0 mm | - | 190 W/m² | - |
| 1788370851 | 30.56° C | 70% | 1015 hPa | 0 mm | - | 124 W/m² | - |
| 1788370550 | 30.56° C | 70% | 1015.1 hPa | 0 mm | - | 432 W/m² | - |
| 1788370245 | 30° C | 70% | 1015.1 hPa | 0 mm | - | 362 W/m² | - |
* Rain latest hour (hover to see other rain measurements)
** Current wind speed in m/s (hover to see current wind gust speed)